This is the latest recevied weather packets stored in our database for station/object VA2CPJ. If no packets are shown the sender has not sent any weather packets the latest 10 day(s).
| Time | Temp. | Humidity | Pressure | Rain* | Wind** | Luminosity | Snow |
|---|---|---|---|---|---|---|---|
| 1777797970 | 3.33° C | 95% | 1018.8 hPa | - | - | 0 W/m² | - |
| 1777797629 | 3.89° C | 95% | 1017.7 hPa | - | - | 0 W/m² | - |
| 1777796430 | 3.33° C | 95% | 1018.1 hPa | - | - | 0 W/m² | - |
| 1777796223 | 3.89° C | 95% | 1018.8 hPa | - | - | 0 W/m² | - |
| 1777795826 | 3.89° C | 94% | 1018.1 hPa | - | - | 0 W/m² | - |
| 1777794452 | 3.89° C | 93% | 1018.8 hPa | - | - | 0 W/m² | - |
| 1777793201 | 4.44° C | 93% | 1018.8 hPa | - | - | 0 W/m² | - |
| 1777791381 | 4.44° C | 94% | 1018.8 hPa | - | - | 0 W/m² | - |
| 1777790804 | 4.44° C | 94% | 1018.8 hPa | - | - | 0 W/m² | - |
| 1777790743 | 4.44° C | 94% | 1018.8 hPa | - | - | 0 W/m² | - |
| 1777788645 | 3.89° C | 93% | 1018.1 hPa | - | - | 0 W/m² | - |
| 1777788421 | 4.44° C | 93% | 1019.1 hPa | - | - | 0 W/m² | - |
| 1777787767 | 4.44° C | 93% | 1019.1 hPa | - | - | 0 W/m² | - |
| 1777784433 | 4.44° C | 91% | 1018.8 hPa | - | - | 0 W/m² | - |
| 1777783821 | 4.44° C | 92% | 1018.8 hPa | - | - | 0 W/m² | - |
| 1777782057 | 5° C | 92% | 1018.8 hPa | - | - | 0 W/m² | - |
| 1777780828 | 4.44° C | 93% | 1019.1 hPa | - | - | 0 W/m² | - |
| 1777779387 | 5.56° C | 91% | 1020.1 hPa | - | - | 0 W/m² | - |
| 1777778422 | 5.56° C | 90% | 1019.1 hPa | - | - | 0 W/m² | - |
| 1777776935 | 5.56° C | 91% | 1020.1 hPa | - | - | 0 W/m² | - |
| 1777773645 | 4.44° C | 92% | 1019.5 hPa | - | - | 0 W/m² | - |
| 1777772848 | 5° C | 92% | 1020.5 hPa | - | - | 0 W/m² | - |
| 1777772726 | 5° C | 92% | 1020.5 hPa | - | - | 0 W/m² | - |
| 1777772140 | 5° C | 91% | 1020.5 hPa | - | - | 0 W/m² | - |
| 1777770950 | 5° C | 91% | 1020.1 hPa | - | - | 0 W/m² | - |
* Rain since midnight (hover to see other rain measurements)
** Current wind speed in m/s (hover to see current wind gust speed)